This is the latest recevied weather packets stored in our database for station/object KF7U. If no packets are shown the sender has not sent any weather packets the latest 10 day(s).
| Time | Temp. | Humidity | Pressure | Rain* | Wind** | Luminosity | Snow |
|---|---|---|---|---|---|---|---|
| 1777589254 | 30.56° C | 13% | 1003.7 hPa | 0 mm | - | 301 W/m² | - |
| 1777588955 | 30.56° C | 13% | 1003.7 hPa | 0 mm | - | 308 W/m² | - |
| 1777588654 | 31.11° C | 13% | 1003.7 hPa | 0 mm | - | 316 W/m² | - |
| 1777588354 | 32.22° C | 13% | 1003.7 hPa | 0 mm | - | 376 W/m² | - |
| 1777588055 | 32.22° C | 13% | 1003.7 hPa | 0 mm | - | 534 W/m² | - |
| 1777587754 | 32.22° C | 12% | 1004.1 hPa | 0 mm | - | 559 W/m² | - |
| 1777587454 | 32.22° C | 12% | 1004.1 hPa | 0 mm | - | 801 W/m² | - |
| 1777587155 | 31.11° C | 13% | 1004.1 hPa | 0 mm | - | 846 W/m² | - |
| 1777586854 | 31.11° C | 12% | 1004.1 hPa | 0 mm | - | 524 W/m² | - |
| 1777586555 | 31.11° C | 12% | 1004.4 hPa | 0 mm | - | 443 W/m² | - |
| 1777586255 | 31.11° C | 12% | 1004.4 hPa | 0 mm | - | 437 W/m² | - |
| 1777585954 | 31.11° C | 12% | 1004.4 hPa | 0 mm | - | 535 W/m² | - |
| 1777585655 | 31.11° C | 12% | 1004.4 hPa | 0 mm | - | 455 W/m² | - |
| 1777585355 | 31.11° C | 12% | 1004.7 hPa | 0 mm | - | 468 W/m² | - |
| 1777585055 | 31.11° C | 12% | 1004.7 hPa | 0 mm | - | 465 W/m² | - |
| 1777584755 | 31.11° C | 12% | 1004.7 hPa | 0 mm | - | 463 W/m² | - |
| 1777584456 | 31.11° C | 12% | 1004.7 hPa | 0 mm | - | 460 W/m² | - |
| 1777584154 | 31.67° C | 12% | 1004.7 hPa | 0 mm | - | 463 W/m² | - |
| 1777583855 | 32.22° C | 11% | 1005.1 hPa | 0 mm | - | 609 W/m² | - |
| 1777583555 | 32.22° C | 11% | 1005.1 hPa | 0 mm | - | 628 W/m² | - |
| 1777583257 | 32.22° C | 11% | 1005.1 hPa | 0 mm | - | 638 W/m² | - |
| 1777582955 | 31.67° C | 11% | 1005.1 hPa | 0 mm | - | 865 W/m² | - |
| 1777582654 | 31.67° C | 11% | 1005.1 hPa | 0 mm | - | 591 W/m² | - |
| 1777582355 | 31.67° C | 11% | 1005.1 hPa | 0 mm | - | 1215 W/m² | - |
| 1777582055 | 32.22° C | 10% | 1005.4 hPa | 0 mm | - | 985 W/m² | - |
* Rain latest hour (hover to see other rain measurements)
** Current wind speed in m/s (hover to see current wind gust speed)